IRNSS-1E (41241 NORAD) Tracking and Keplerian Element Data

This shows tracking and keplerian element data for the satellite.

Feedback or suggestion? Click here.




ElementValue
Catalog41241
NameIRNSS-1E
Epoch Orbit3292
Epoch Day18.55927074
Epoch Year2025
RAAN70.2723
Inclination32.1202
Eccentricity0.0021289
Argument of Perigee190.9048
Mean Anonmoly170.0441
Mean Motion1.00267868
Decay Rate-2.99E-06
L11 41241U 16003A 25018.55927074 -.00000299 00000+0 00000+0 0 9996
L22 41241 32.1202 70.2723 0021289 190.9048 170.0441 1.00267868 32929



Live tracking and technical data element details for IRNSS-1E (NORAD 41241). IRNSS-1E can be tracked NOW for your location showing map with azimuth and elevation plus other details from your city location.







IsCatalogInMostPopularTable: catalog: 41241, numindb: 598
Update: records affected: 1



GetName: 41241 IRNSS-1E

Hit Count: updated at: Sat, 24 May 2025 16:06:28 GMT